Tümü
Scone Airport (Scone, New South Wales) NSO Hava Durumu
|
Scone, New South Wales (NSO / YSCO)
Açık
Hafif rüzgârlı |
|
15 °C |
NSO Terminal Alan Tahmini
| Here is the undecoded forecast: 2026/09/06 18:01 YSCO 061801Z 0620/0708 VRB03KT 9999 SCT015 FM070000 26008KT CAVOK PROB30 0620/0622 0500 FG BKN001 RMK T 07 15 20 23 Q 1022 1023 1020 1017 |
Yakın zamandaki NSO METAR geçmişi
| Date | Time (AEST) | Flight Rules | Wind Dir. | Speed | Type | Height AGL (ft) | Visibility | Temp (°C) | Temp (°F) | Dew Point (°C) | Dew Point (°F) | Rel. Humid. | Pressure | Density Altitude | Remarks |
|---|---|---|---|---|---|---|---|---|---|---|---|---|---|---|---|
| 07-Eyl | 09:00 | VFR | 110° | 2 kt | 10000 meters | 15° | 59° | 10° | 50° | 72% | 1023 mb | 456 ft | |||
| 07-Eyl | 08:00 | VFR | Calm | 10000 meters | 10° | 50° | 9° | 48° | 93% | 1023 mb | -144 ft | ||||
| 07-Eyl | 07:00 | VFR | Calm | 10000 meters | 6° | 42° | 6° | 42° | 100% | 1022 mb | -595 ft | ||||
| 07-Eyl | 06:00 | VFR | 290° | 5 kt | 10000 meters | 3° | 37° | 3° | 37° | 100% | 1022 mb | -955 ft | |||
| 07-Eyl | 05:00 | VFR | 30° | 3 kt | 10000 meters |
3° | 37° | 3° | 37° | 100% | 1022 mb | -955 ft | |||
| 07-Eyl | 04:08 | MVFR | Calm | 5000 meters |
3° | 37° | 3° | 37° | 100% | 1021 mb | -925 ft | Mist | |||
| 07-Eyl | 03:00 | VFR | 290° | 3 kt | 10000 meters | 5° | 41° | 4° | 39° | 93% | 1022 mb | -715 ft | |||
| 07-Eyl | 02:00 | VFR | Calm | 10000 meters | 5° | 41° | 4° | 39° | 93% | 1022 mb | -715 ft | ||||
| 07-Eyl | 01:00 | VFR | Calm | 10000 meters | 5° | 41° | 4° | 39° | 93% | 1022 mb | -715 ft | ||||
| 07-Eyl | 00:00 | VFR | 300° | 4 kt | 10000 meters | 7° | 44° | 5° | 41° | 87% | 1022 mb | -475 ft | |||
| 06-Eyl | 23:00 | VFR | Calm | 10000 meters | 8° | 46° | 6° | 42° | 87% | 1021 mb | -325 ft | ||||
| 06-Eyl | 22:00 | VFR | 360° | 1 kt | 10000 meters | 9° | 48° | 6° | 42° | 81% | 1021 mb | -205 ft | |||
| 06-Eyl | 21:00 | VFR | 90° | 3 kt | 10000 meters | 10° | 50° | 7° | 44° | 82% | 1021 mb | -85 ft | |||
| 06-Eyl | 20:00 | VFR | 360° | 5 kt | 10000 meters | 12° | 53° | 7° | 44° | 71% | 1020 mb | 184 ft | |||
| 06-Eyl | 19:00 | VFR | Calm | 10000 meters | 13° | 55° | 7° | 44° | 67% | 1019 mb | 334 ft | ||||
| 06-Eyl | 18:00 | VFR | 320° | 5 kt | 10000 meters | 18° | 64° | 7° | 44° | 49% | 1018 mb | 963 ft | |||
| 06-Eyl | 17:00 | VFR | 280° | 3 kt | 10000 meters | 21° | 69° | 8° | 46° | 43% | 1018 mb | 1.323 ft | |||
| 06-Eyl | 16:00 | VFR | 280° | 8 kt | 10000 meters | 22° | 71° | 6° | 42° | 35% | 1017 mb | 1.473 ft | |||
| 06-Eyl | 15:00 | VFR | 270° | 7 kt | 10000 meters | 22° | 71° | 6° | 42° | 35% | 1017 mb | 1.473 ft | |||
| 06-Eyl | 14:00 | VFR | 290° | 9 kt | 10000 meters | 22° | 71° | 7° | 44° | 38% | 1017 mb | 1.473 ft | |||
| 06-Eyl | 13:00 | VFR | 280° | 9 kt | 10000 meters | 21° | 69° | 8° | 46° | 43% | 1017 mb | 1.353 ft | |||
| 06-Eyl | 12:00 | VFR | 280° | 11 kt | 10000 meters | 20° | 68° | 6° | 42° | 40% | 1018 mb | 1.203 ft | |||
| 06-Eyl | 11:00 | VFR | 280° | 11 kt | 10000 meters | 19° | 66° | 6° | 42° | 43% | 1018 mb | 1.083 ft | |||
| 06-Eyl | 10:00 | VFR | 280° | 11 kt | 10000 meters | 18° | 64° | 7° | 44° | 49% | 1019 mb | 934 ft |
Giriş
| Tarayıcınız desteklenmiyor. tarayıcınızı yükseltin |
